Year,Month,Day,Hour,Minute,Value (Times are PST for temperature in C)
2017,06,26,00,00,19.60
2017,06,26,00,01,19.70
2017,06,26,00,02,19.70
2017,06,26,00,03,19.70
2017,06,26,00,04,19.70
2017,06,26,00,05,19.80
2017,06,26,00,06,19.80
2017,06,26,00,07,19.80
2017,06,26,00,08,19.80
2017,06,26,00,09,19.90
2017,06,26,00,10,19.90
2017,06,26,00,11,19.90
2017,06,26,00,12,19.90
2017,06,26,00,13,19.90
2017,06,26,00,14,19.90
2017,06,26,00,15,19.90
2017,06,26,00,16,20.00
2017,06,26,00,17,20.00
2017,06,26,00,18,19.90
2017,06,26,00,19,19.90
2017,06,26,00,20,19.90
2017,06,26,00,21,19.90
2017,06,26,00,22,19.90
2017,06,26,00,23,19.80
2017,06,26,00,24,19.80
2017,06,26,00,25,19.80
2017,06,26,00,26,19.80
2017,06,26,00,27,19.70
2017,06,26,00,28,19.70
2017,06,26,00,29,19.70
2017,06,26,00,30,19.70
2017,06,26,00,31,19.70
2017,06,26,00,32,19.70
2017,06,26,00,33,19.70
2017,06,26,00,34,19.70
2017,06,26,00,35,19.70
2017,06,26,00,36,19.70
2017,06,26,00,37,19.70
2017,06,26,00,38,19.70
2017,06,26,00,39,19.70
2017,06,26,00,40,19.70
2017,06,26,00,41,19.60
2017,06,26,00,42,19.70
2017,06,26,00,43,19.70
2017,06,26,00,44,19.60
2017,06,26,00,45,19.60
2017,06,26,00,46,19.50
2017,06,26,00,47,19.50
2017,06,26,00,48,19.40
2017,06,26,00,49,19.40
2017,06,26,00,50,19.40
2017,06,26,00,51,19.40
2017,06,26,00,52,19.40
2017,06,26,00,53,19.40
2017,06,26,00,54,19.40
2017,06,26,00,55,19.50
2017,06,26,00,56,19.50
2017,06,26,00,57,19.50
2017,06,26,00,58,19.50
2017,06,26,00,59,19.60
2017,06,26,01,00,19.60
2017,06,26,01,01,19.60
2017,06,26,01,02,19.60
2017,06,26,01,03,19.60
2017,06,26,01,04,19.60
2017,06,26,01,05,19.60
2017,06,26,01,06,19.60
2017,06,26,01,07,19.60
2017,06,26,01,08,19.60
2017,06,26,01,09,19.60
2017,06,26,01,10,19.50
2017,06,26,01,11,19.50
2017,06,26,01,12,19.50
2017,06,26,01,13,19.50
2017,06,26,01,14,19.40
2017,06,26,01,15,19.40
2017,06,26,01,16,19.40
2017,06,26,01,17,19.40
2017,06,26,01,18,19.40
2017,06,26,01,19,19.40
2017,06,26,01,20,19.50
2017,06,26,01,21,19.50
2017,06,26,01,22,19.50
2017,06,26,01,23,19.60
2017,06,26,01,24,19.60
2017,06,26,01,25,19.60
2017,06,26,01,26,19.60
2017,06,26,01,27,19.60
2017,06,26,01,28,19.60
2017,06,26,01,29,19.50
2017,06,26,01,30,19.50
2017,06,26,01,31,19.50
2017,06,26,01,32,19.40
2017,06,26,01,33,19.40
2017,06,26,01,34,19.40
2017,06,26,01,35,19.40
2017,06,26,01,36,19.40
2017,06,26,01,37,19.40
2017,06,26,01,38,19.40
2017,06,26,01,39,19.50
2017,06,26,01,40,19.50
2017,06,26,01,41,19.50
2017,06,26,01,42,19.50
2017,06,26,01,43,19.60
2017,06,26,01,44,19.60
2017,06,26,01,45,19.60
2017,06,26,01,46,19.60
2017,06,26,01,47,19.60
2017,06,26,01,48,19.50
2017,06,26,01,49,19.50
2017,06,26,01,50,19.50
2017,06,26,01,51,19.50
2017,06,26,01,52,19.50
2017,06,26,01,53,19.40
2017,06,26,01,54,19.40
2017,06,26,01,55,19.40
2017,06,26,01,56,19.40
2017,06,26,01,57,19.40
2017,06,26,01,58,19.30
2017,06,26,01,59,19.30
2017,06,26,02,00,19.30
2017,06,26,02,01,19.30
2017,06,26,02,02,19.30
2017,06,26,02,03,19.30
2017,06,26,02,04,19.30
2017,06,26,02,05,19.30
2017,06,26,02,06,19.30
2017,06,26,02,07,19.30
2017,06,26,02,08,19.30
2017,06,26,02,09,19.20
2017,06,26,02,10,19.20
2017,06,26,02,11,19.20
2017,06,26,02,12,19.10
2017,06,26,02,13,19.10
2017,06,26,02,14,19.10
2017,06,26,02,15,19.00
2017,06,26,02,16,19.00
2017,06,26,02,17,18.90
2017,06,26,02,18,18.90
2017,06,26,02,19,18.80
2017,06,26,02,20,18.80
2017,06,26,02,21,18.80
2017,06,26,02,22,18.80
2017,06,26,02,23,18.80
2017,06,26,02,24,18.80
2017,06,26,02,25,18.80
2017,06,26,02,26,18.80
2017,06,26,02,27,18.80
2017,06,26,02,28,18.80
2017,06,26,02,29,18.80
2017,06,26,02,30,18.80
2017,06,26,02,31,18.80
2017,06,26,02,32,18.80
2017,06,26,02,33,18.70
2017,06,26,02,34,18.70
2017,06,26,02,35,18.60
2017,06,26,02,36,18.60
2017,06,26,02,37,18.50
2017,06,26,02,38,18.50
2017,06,26,02,39,18.50
2017,06,26,02,40,18.50
2017,06,26,02,41,18.40
2017,06,26,02,42,18.40
2017,06,26,02,43,18.40
2017,06,26,02,44,18.40
2017,06,26,02,45,18.40
2017,06,26,02,46,18.40
2017,06,26,02,47,18.40
2017,06,26,02,48,18.40
2017,06,26,02,49,18.40
2017,06,26,02,50,18.50
2017,06,26,02,51,18.50
2017,06,26,02,52,18.50
2017,06,26,02,53,18.50
2017,06,26,02,54,18.50
2017,06,26,02,55,18.50
2017,06,26,02,56,18.40
2017,06,26,02,57,18.50
2017,06,26,02,58,18.50
2017,06,26,02,59,18.60
2017,06,26,03,00,18.60
2017,06,26,03,01,18.60
2017,06,26,03,02,18.60
2017,06,26,03,03,18.60
2017,06,26,03,04,18.60
2017,06,26,03,05,18.60
2017,06,26,03,06,18.60
2017,06,26,03,07,18.60
2017,06,26,03,08,18.50
2017,06,26,03,09,18.40
2017,06,26,03,10,18.40
2017,06,26,03,11,18.30
2017,06,26,03,12,18.20
2017,06,26,03,13,18.20
2017,06,26,03,14,18.10
2017,06,26,03,15,18.20
2017,06,26,03,16,18.20
2017,06,26,03,17,18.30
2017,06,26,03,18,18.40
2017,06,26,03,19,18.60
2017,06,26,03,20,18.70
2017,06,26,03,21,18.80
2017,06,26,03,22,19.00
2017,06,26,03,23,19.00
2017,06,26,03,24,19.20
2017,06,26,03,25,19.30
2017,06,26,03,26,19.30
2017,06,26,03,27,19.40
2017,06,26,03,28,19.40
2017,06,26,03,29,19.40
2017,06,26,03,30,19.50
2017,06,26,03,31,19.50
2017,06,26,03,32,19.60
2017,06,26,03,33,19.60
2017,06,26,03,34,19.60
2017,06,26,03,35,19.70
2017,06,26,03,36,19.80
2017,06,26,03,37,19.80
2017,06,26,03,38,19.90
2017,06,26,03,39,19.90
2017,06,26,03,40,19.90
2017,06,26,03,41,19.90
2017,06,26,03,42,19.90
2017,06,26,03,43,19.80
2017,06,26,03,44,19.80
2017,06,26,03,45,19.70
2017,06,26,03,46,19.70
2017,06,26,03,47,19.70
2017,06,26,03,48,19.60
2017,06,26,03,49,19.60
2017,06,26,03,50,19.60
2017,06,26,03,51,19.60
2017,06,26,03,52,19.60
2017,06,26,03,53,19.60
2017,06,26,03,54,19.50
2017,06,26,03,55,19.50
2017,06,26,03,56,19.50
2017,06,26,03,57,19.40
2017,06,26,03,58,19.40
2017,06,26,03,59,19.40
2017,06,26,04,00,19.40
2017,06,26,04,01,19.30
2017,06,26,04,02,19.20
2017,06,26,04,03,19.10
2017,06,26,04,04,19.10
2017,06,26,04,05,19.00
2017,06,26,04,06,19.00
2017,06,26,04,07,18.90
2017,06,26,04,08,18.90
2017,06,26,04,09,18.90
2017,06,26,04,10,18.90
2017,06,26,04,11,18.80
2017,06,26,04,12,18.80
2017,06,26,04,13,18.80
2017,06,26,04,14,18.70
2017,06,26,04,15,18.70
2017,06,26,04,16,18.80
2017,06,26,04,17,18.80
2017,06,26,04,18,18.80
2017,06,26,04,19,18.90
2017,06,26,04,20,18.90
2017,06,26,04,21,18.90
2017,06,26,04,22,18.80
2017,06,26,04,23,18.70
2017,06,26,04,24,18.70
2017,06,26,04,25,18.50
2017,06,26,04,26,18.50
2017,06,26,04,27,18.40
2017,06,26,04,28,18.30
2017,06,26,04,29,18.30
2017,06,26,04,30,18.20
2017,06,26,04,31,18.20
2017,06,26,04,32,18.10
2017,06,26,04,33,18.10
2017,06,26,04,34,18.10
2017,06,26,04,35,18.00
2017,06,26,04,36,17.90
2017,06,26,04,37,17.90
2017,06,26,04,38,17.90
2017,06,26,04,39,17.80
2017,06,26,04,40,17.80
2017,06,26,04,41,17.80
2017,06,26,04,42,17.80
2017,06,26,04,43,17.70
2017,06,26,04,44,17.70
2017,06,26,04,45,17.70
2017,06,26,04,46,17.60
2017,06,26,04,47,17.60
2017,06,26,04,48,17.50
2017,06,26,04,49,17.50
2017,06,26,04,50,17.50
2017,06,26,04,51,17.40
2017,06,26,04,52,17.40
2017,06,26,04,53,17.30
2017,06,26,04,54,17.30
2017,06,26,04,55,17.30
2017,06,26,04,56,17.20
2017,06,26,04,57,17.20
2017,06,26,04,58,17.10
2017,06,26,04,59,17.10
2017,06,26,05,00,17.00
2017,06,26,05,01,17.00
2017,06,26,05,02,16.90
2017,06,26,05,03,16.90
2017,06,26,05,04,16.90
2017,06,26,05,05,16.80
2017,06,26,05,06,16.80
2017,06,26,05,07,16.80
2017,06,26,05,08,16.70
2017,06,26,05,09,16.70
2017,06,26,05,10,16.70
2017,06,26,05,11,16.60
2017,06,26,05,12,16.60
2017,06,26,05,13,16.60
2017,06,26,05,14,16.60
2017,06,26,05,15,16.50
2017,06,26,05,16,16.50
2017,06,26,05,17,16.50
2017,06,26,05,18,16.40
2017,06,26,05,19,16.40
2017,06,26,05,20,16.30
2017,06,26,05,21,16.30
2017,06,26,05,22,16.20
2017,06,26,05,23,16.20
2017,06,26,05,24,16.10
2017,06,26,05,25,16.10
2017,06,26,05,26,16.00
2017,06,26,05,27,16.00
2017,06,26,05,28,15.90
2017,06,26,05,29,15.90
2017,06,26,05,30,15.90
2017,06,26,05,31,15.90
2017,06,26,05,32,15.80
2017,06,26,05,33,15.80
2017,06,26,05,34,15.80
2017,06,26,05,35,15.80
2017,06,26,05,36,15.80
2017,06,26,05,37,15.80
2017,06,26,05,38,15.70
2017,06,26,05,39,15.70
2017,06,26,05,40,15.70
2017,06,26,05,41,15.70
2017,06,26,05,42,15.70
2017,06,26,05,43,15.70
2017,06,26,05,44,15.70
2017,06,26,05,45,15.70
2017,06,26,05,46,15.60
2017,06,26,05,47,15.60
2017,06,26,05,48,15.60
2017,06,26,05,49,15.60
2017,06,26,05,50,15.60
2017,06,26,05,51,15.60
2017,06,26,05,52,15.60
2017,06,26,05,53,15.60
2017,06,26,05,54,15.60
2017,06,26,05,55,15.50
2017,06,26,05,56,15.40
2017,06,26,05,57,15.40
2017,06,26,05,58,15.30
2017,06,26,05,59,15.30
2017,06,26,06,00,15.20
2017,06,26,06,01,15.20
2017,06,26,06,02,15.20
2017,06,26,06,03,15.20
2017,06,26,06,04,15.20
2017,06,26,06,05,15.20
2017,06,26,06,06,15.30
2017,06,26,06,07,15.30
2017,06,26,06,08,15.30
2017,06,26,06,09,15.30
2017,06,26,06,10,15.30
2017,06,26,06,11,15.30
2017,06,26,06,12,15.30
2017,06,26,06,13,15.30
2017,06,26,06,14,15.30
2017,06,26,06,15,15.30
2017,06,26,06,16,15.30
2017,06,26,06,17,15.40
2017,06,26,06,18,15.40
2017,06,26,06,19,15.40
2017,06,26,06,20,15.40
2017,06,26,06,21,15.50
2017,06,26,06,22,15.50
2017,06,26,06,23,15.50
2017,06,26,06,24,15.40
2017,06,26,06,25,15.40
2017,06,26,06,26,15.30
2017,06,26,06,27,15.30
2017,06,26,06,28,15.20
2017,06,26,06,29,15.20
2017,06,26,06,30,15.20
2017,06,26,06,31,15.20
2017,06,26,06,32,15.30
2017,06,26,06,33,15.30
2017,06,26,06,34,15.40
2017,06,26,06,35,15.40
2017,06,26,06,36,15.40
2017,06,26,06,37,15.50
2017,06,26,06,38,15.60
2017,06,26,06,39,15.60
2017,06,26,06,40,15.70
2017,06,26,06,41,15.80
2017,06,26,06,42,15.80
2017,06,26,06,43,15.90
2017,06,26,06,44,16.00
2017,06,26,06,45,16.00
2017,06,26,06,46,16.10
2017,06,26,06,47,16.20
2017,06,26,06,48,16.20
2017,06,26,06,49,16.30
2017,06,26,06,50,16.30
2017,06,26,06,51,16.40
2017,06,26,06,52,16.40
2017,06,26,06,53,16.50
2017,06,26,06,54,16.50
2017,06,26,06,55,16.50
2017,06,26,06,56,16.60
2017,06,26,06,57,16.60
2017,06,26,06,58,16.60
2017,06,26,06,59,16.60
2017,06,26,07,00,16.60
2017,06,26,07,01,16.60
2017,06,26,07,02,16.60
2017,06,26,07,03,16.60
2017,06,26,07,04,16.70
2017,06,26,07,05,16.80
2017,06,26,07,06,16.80
2017,06,26,07,07,16.90
2017,06,26,07,08,17.00
2017,06,26,07,09,17.10
2017,06,26,07,10,17.10
2017,06,26,07,11,17.20
2017,06,26,07,12,17.20
2017,06,26,07,13,17.20
2017,06,26,07,14,17.30
2017,06,26,07,15,17.30
2017,06,26,07,16,17.30
2017,06,26,07,17,17.30
2017,06,26,07,18,17.30
2017,06,26,07,19,17.40
2017,06,26,07,20,17.40
2017,06,26,07,21,17.40
2017,06,26,07,22,17.40
2017,06,26,07,23,17.40
2017,06,26,07,24,17.40
2017,06,26,07,25,17.50
2017,06,26,07,26,17.50
2017,06,26,07,27,17.60
2017,06,26,07,28,17.70
2017,06,26,07,29,17.80
2017,06,26,07,30,17.90
2017,06,26,07,31,17.90
2017,06,26,07,32,17.90
2017,06,26,07,33,17.90
2017,06,26,07,34,17.90
2017,06,26,07,35,17.90
2017,06,26,07,36,17.80
2017,06,26,07,37,17.80
2017,06,26,07,38,17.80
2017,06,26,07,39,17.90
2017,06,26,07,40,17.90
2017,06,26,07,41,18.00
2017,06,26,07,42,18.10
2017,06,26,07,43,18.10
2017,06,26,07,44,18.20
2017,06,26,07,45,18.30
2017,06,26,07,46,18.40
2017,06,26,07,47,18.40
2017,06,26,07,48,18.50
2017,06,26,07,49,18.60
2017,06,26,07,50,18.60
2017,06,26,07,51,18.70
2017,06,26,07,52,18.70
2017,06,26,07,53,18.70
2017,06,26,07,54,18.70
2017,06,26,07,55,18.70
2017,06,26,07,56,18.70
2017,06,26,07,57,18.70
2017,06,26,07,58,18.70
2017,06,26,07,59,18.70
2017,06,26,08,00,18.70
2017,06,26,08,01,18.70
2017,06,26,08,02,18.70
2017,06,26,08,03,18.70
2017,06,26,08,04,18.80
2017,06,26,08,05,18.80
2017,06,26,08,06,18.80
2017,06,26,08,07,18.80
2017,06,26,08,08,18.80
2017,06,26,08,09,18.80
2017,06,26,08,10,18.80
2017,06,26,08,11,18.80
2017,06,26,08,12,18.80
2017,06,26,08,13,18.90
2017,06,26,08,14,18.90
2017,06,26,08,15,18.90
2017,06,26,08,16,18.90
2017,06,26,08,17,18.90
2017,06,26,08,18,18.90
2017,06,26,08,19,19.00
2017,06,26,08,20,19.00
2017,06,26,08,21,19.10
2017,06,26,08,22,19.10
2017,06,26,08,23,19.20
2017,06,26,08,24,19.20
2017,06,26,08,25,19.20
2017,06,26,08,26,19.20
2017,06,26,08,27,19.20
2017,06,26,08,28,19.30
2017,06,26,08,29,19.30
2017,06,26,08,30,19.30
2017,06,26,08,31,19.30
2017,06,26,08,32,19.30
2017,06,26,08,33,19.30
2017,06,26,08,34,19.20
2017,06,26,08,35,19.20
2017,06,26,08,36,19.20
2017,06,26,08,37,19.20
2017,06,26,08,38,19.20
2017,06,26,08,39,19.10
2017,06,26,08,40,19.00
2017,06,26,08,41,18.90
2017,06,26,08,42,18.80
2017,06,26,08,43,18.80
2017,06,26,08,44,18.80
2017,06,26,08,45,18.70
2017,06,26,08,46,18.70
2017,06,26,08,47,18.60
2017,06,26,08,48,18.60
2017,06,26,08,49,18.60
2017,06,26,08,50,18.60
2017,06,26,08,51,18.60
2017,06,26,08,52,18.50
2017,06,26,08,53,18.50
2017,06,26,08,54,18.50
2017,06,26,08,55,18.50
2017,06,26,08,56,18.40
2017,06,26,08,57,18.40
2017,06,26,08,58,18.40
2017,06,26,08,59,18.30
2017,06,26,09,00,18.30
2017,06,26,09,01,18.20
2017,06,26,09,02,18.10
2017,06,26,09,03,18.10
2017,06,26,09,04,18.00
2017,06,26,09,05,17.90
2017,06,26,09,06,17.90
2017,06,26,09,07,17.90
2017,06,26,09,08,17.90
2017,06,26,09,09,17.80
2017,06,26,09,10,17.80
2017,06,26,09,11,17.80
2017,06,26,09,12,17.70
2017,06,26,09,13,17.70
2017,06,26,09,14,17.70
2017,06,26,09,15,17.80
2017,06,26,09,16,17.80
2017,06,26,09,17,17.80
2017,06,26,09,18,17.90
2017,06,26,09,19,18.00
2017,06,26,09,20,18.00
2017,06,26,09,21,18.00
2017,06,26,09,22,18.10
2017,06,26,09,23,18.10
2017,06,26,09,24,18.10
2017,06,26,09,25,18.20
2017,06,26,09,26,18.20
2017,06,26,09,27,18.30
2017,06,26,09,28,18.40
2017,06,26,09,29,18.50
2017,06,26,09,30,18.70
2017,06,26,09,31,18.70
2017,06,26,09,32,18.80
2017,06,26,09,33,18.90
2017,06,26,09,34,19.00
2017,06,26,09,35,19.10
2017,06,26,09,36,19.20
2017,06,26,09,37,19.30
2017,06,26,09,38,19.30
2017,06,26,09,39,19.30
2017,06,26,09,40,19.40
2017,06,26,09,41,19.50
2017,06,26,09,42,19.50
2017,06,26,09,43,19.60
2017,06,26,09,44,19.70
2017,06,26,09,45,19.80
2017,06,26,09,46,19.90
2017,06,26,09,47,20.00
2017,06,26,09,48,20.00
2017,06,26,09,49,20.00
2017,06,26,09,50,20.10
2017,06,26,09,51,20.20
2017,06,26,09,52,20.20
2017,06,26,09,53,20.30
2017,06,26,09,54,20.40
2017,06,26,09,55,20.40
2017,06,26,09,56,20.50
2017,06,26,09,57,20.60
2017,06,26,09,58,20.60
2017,06,26,09,59,20.70
2017,06,26,10,00,20.60
2017,06,26,10,01,20.60
2017,06,26,10,02,20.60
2017,06,26,10,03,20.70
2017,06,26,10,04,20.70
2017,06,26,10,05,20.60
2017,06,26,10,06,20.40
2017,06,26,10,07,20.20
2017,06,26,10,08,20.10
2017,06,26,10,09,19.90
2017,06,26,10,10,19.80
2017,06,26,10,11,19.70
2017,06,26,10,12,19.80
2017,06,26,10,13,19.80
2017,06,26,10,14,19.90
2017,06,26,10,15,19.90
2017,06,26,10,16,19.90
2017,06,26,10,17,19.90
2017,06,26,10,18,19.90
2017,06,26,10,19,19.80
2017,06,26,10,20,19.90
2017,06,26,10,21,19.90
2017,06,26,10,22,19.90
2017,06,26,10,23,19.90
2017,06,26,10,24,19.80
2017,06,26,10,25,19.80
2017,06,26,10,26,19.80
2017,06,26,10,27,19.80
2017,06,26,10,28,19.90
2017,06,26,10,29,19.90
2017,06,26,10,30,20.00
2017,06,26,10,31,20.00
2017,06,26,10,32,20.10
2017,06,26,10,33,20.20
2017,06,26,10,34,20.20
2017,06,26,10,35,20.30
2017,06,26,10,36,20.30
2017,06,26,10,37,20.40
2017,06,26,10,38,20.50
2017,06,26,10,39,20.50
2017,06,26,10,40,20.60
2017,06,26,10,41,20.60
2017,06,26,10,42,20.70
2017,06,26,10,43,20.70
2017,06,26,10,44,20.70
2017,06,26,10,45,20.70
2017,06,26,10,46,20.70
2017,06,26,10,47,20.70
2017,06,26,10,48,20.80
2017,06,26,10,49,20.80
2017,06,26,10,50,20.80
2017,06,26,10,51,20.70
2017,06,26,10,52,20.70
2017,06,26,10,53,20.70
2017,06,26,10,54,20.70
2017,06,26,10,55,20.70
2017,06,26,10,56,20.70
2017,06,26,10,57,20.80
2017,06,26,10,58,20.80
2017,06,26,10,59,20.80
2017,06,26,11,00,20.80
2017,06,26,11,01,20.70
2017,06,26,11,02,20.60
2017,06,26,11,03,20.60
2017,06,26,11,04,20.60
2017,06,26,11,05,20.60
2017,06,26,11,06,20.60
2017,06,26,11,07,20.50
2017,06,26,11,08,20.50
2017,06,26,11,09,20.40
2017,06,26,11,10,20.40
2017,06,26,11,11,20.40
2017,06,26,11,12,20.30
2017,06,26,11,13,20.30
2017,06,26,11,14,20.30
2017,06,26,11,15,20.30
2017,06,26,11,16,20.40
2017,06,26,11,17,20.40
2017,06,26,11,18,20.40
2017,06,26,11,19,20.40
2017,06,26,11,20,20.30
2017,06,26,11,21,20.20
2017,06,26,11,22,20.20
2017,06,26,11,23,20.20
2017,06,26,11,24,20.20
2017,06,26,11,25,20.10
2017,06,26,11,26,20.10
2017,06,26,11,27,20.10
2017,06,26,11,28,20.10
2017,06,26,11,29,20.10
2017,06,26,11,30,20.10
2017,06,26,11,31,20.10
2017,06,26,11,32,20.00
2017,06,26,11,33,20.00
2017,06,26,11,34,20.10
2017,06,26,11,35,20.10
2017,06,26,11,36,20.20
2017,06,26,11,37,20.30
2017,06,26,11,38,20.40
2017,06,26,11,39,20.40
2017,06,26,11,40,20.40
2017,06,26,11,41,20.50
2017,06,26,11,42,20.50
2017,06,26,11,43,20.50
2017,06,26,11,44,20.40
2017,06,26,11,45,20.40
2017,06,26,11,46,20.30
2017,06,26,11,47,20.30
2017,06,26,11,48,20.20
2017,06,26,11,49,20.20
2017,06,26,11,50,20.10
2017,06,26,11,51,20.00
2017,06,26,11,52,19.90
2017,06,26,11,53,19.80
2017,06,26,11,54,19.60
2017,06,26,11,55,19.50
2017,06,26,11,56,19.40
2017,06,26,11,57,19.30
2017,06,26,11,58,19.40
2017,06,26,11,59,19.50
2017,06,26,12,00,19.60
2017,06,26,12,01,19.60
2017,06,26,12,02,19.60
2017,06,26,12,03,19.60
2017,06,26,12,04,19.70
2017,06,26,12,05,19.80
2017,06,26,12,06,19.80
2017,06,26,12,07,19.90
2017,06,26,12,08,20.00
2017,06,26,12,09,20.10
2017,06,26,12,10,20.10
2017,06,26,12,11,20.20
2017,06,26,12,12,20.10
2017,06,26,12,13,20.10
2017,06,26,12,14,19.90
2017,06,26,12,15,19.70
2017,06,26,12,16,19.60
2017,06,26,12,17,19.50
2017,06,26,12,18,19.30
2017,06,26,12,19,19.20
2017,06,26,12,20,19.10
2017,06,26,12,21,19.10
2017,06,26,12,22,19.20
2017,06,26,12,23,19.20
2017,06,26,12,24,19.10
2017,06,26,12,25,19.00
2017,06,26,12,26,18.80
2017,06,26,12,27,18.80
2017,06,26,12,28,18.80
2017,06,26,12,29,18.90
2017,06,26,12,30,18.90
2017,06,26,12,31,18.90
2017,06,26,12,32,18.90
2017,06,26,12,33,18.90
2017,06,26,12,34,18.90
2017,06,26,12,35,18.90
2017,06,26,12,36,19.00
2017,06,26,12,37,19.10
2017,06,26,12,38,19.20
2017,06,26,12,39,19.30
2017,06,26,12,40,19.40
2017,06,26,12,41,19.50
2017,06,26,12,42,19.60
2017,06,26,12,43,19.60
2017,06,26,12,44,19.50
2017,06,26,12,45,19.50
2017,06,26,12,46,19.40
2017,06,26,12,47,19.40
2017,06,26,12,48,19.30
2017,06,26,12,49,19.10
2017,06,26,12,50,19.00
2017,06,26,12,51,18.90
2017,06,26,12,52,18.90
2017,06,26,12,53,18.90
2017,06,26,12,54,18.90
2017,06,26,12,55,19.00
2017,06,26,12,56,19.00
2017,06,26,12,57,19.00
2017,06,26,12,58,19.00
2017,06,26,12,59,18.90
2017,06,26,13,00,18.90
2017,06,26,13,01,18.90
2017,06,26,13,02,19.00
2017,06,26,13,03,19.20
2017,06,26,13,04,19.20
2017,06,26,13,05,19.20
2017,06,26,13,06,19.20
2017,06,26,13,07,19.20
2017,06,26,13,08,19.20
2017,06,26,13,09,19.20
2017,06,26,13,10,19.20
2017,06,26,13,11,19.10
2017,06,26,13,12,19.00
2017,06,26,13,13,19.00
2017,06,26,13,14,18.90
2017,06,26,13,15,18.90
2017,06,26,13,16,18.80
2017,06,26,13,17,18.70
2017,06,26,13,18,18.60
2017,06,26,13,19,18.40
2017,06,26,13,20,18.30
2017,06,26,13,21,18.30
2017,06,26,13,22,18.30
2017,06,26,13,23,18.40
2017,06,26,13,24,18.40
2017,06,26,13,25,18.50
2017,06,26,13,26,18.60
2017,06,26,13,27,18.80
2017,06,26,13,28,18.90
2017,06,26,13,29,18.90
2017,06,26,13,30,18.90
2017,06,26,13,31,18.80
2017,06,26,13,32,18.70
2017,06,26,13,33,18.60
2017,06,26,13,34,18.50
2017,06,26,13,35,18.50
2017,06,26,13,36,18.50
2017,06,26,13,37,18.50
2017,06,26,13,38,18.60
2017,06,26,13,39,18.70
2017,06,26,13,40,18.80
2017,06,26,13,41,18.80
2017,06,26,13,42,18.80
2017,06,26,13,43,18.80
2017,06,26,13,44,18.80
2017,06,26,13,45,18.90
2017,06,26,13,46,19.00
2017,06,26,13,47,19.00
2017,06,26,13,48,19.10
2017,06,26,13,49,19.20
2017,06,26,13,50,19.40
2017,06,26,13,51,19.40
2017,06,26,13,52,19.50
2017,06,26,13,53,19.60
2017,06,26,13,54,19.70
2017,06,26,13,55,19.90
2017,06,26,13,56,20.10
2017,06,26,13,57,20.30
2017,06,26,13,58,20.40
2017,06,26,13,59,20.50
2017,06,26,14,00,20.50
2017,06,26,14,01,20.50
2017,06,26,14,02,20.40
2017,06,26,14,03,20.30
2017,06,26,14,04,20.30
2017,06,26,14,05,20.20
2017,06,26,14,06,20.20
2017,06,26,14,07,20.20
2017,06,26,14,08,20.20
2017,06,26,14,09,20.30
2017,06,26,14,10,20.50
2017,06,26,14,11,20.60
2017,06,26,14,12,20.60
2017,06,26,14,13,20.70
2017,06,26,14,14,20.80
2017,06,26,14,15,20.80
2017,06,26,14,16,20.90
2017,06,26,14,17,20.90
2017,06,26,14,18,20.90
2017,06,26,14,19,20.90
2017,06,26,14,20,20.90
2017,06,26,14,21,20.90
2017,06,26,14,22,21.00
2017,06,26,14,23,21.20
2017,06,26,14,24,21.30
2017,06,26,14,25,21.50
2017,06,26,14,26,21.70
2017,06,26,14,27,21.90
2017,06,26,14,28,22.10
2017,06,26,14,29,22.30
2017,06,26,14,30,22.50
2017,06,26,14,31,22.60
2017,06,26,14,32,22.70
2017,06,26,14,33,22.80
2017,06,26,14,34,22.70
2017,06,26,14,35,22.70
2017,06,26,14,36,22.80
2017,06,26,14,37,22.90
2017,06,26,14,38,23.00
2017,06,26,14,39,23.00
2017,06,26,14,40,23.10
2017,06,26,14,41,23.20
2017,06,26,14,42,23.20
2017,06,26,14,43,23.20
2017,06,26,14,44,23.30
2017,06,26,14,45,23.30
2017,06,26,14,46,23.30
2017,06,26,14,47,23.30
2017,06,26,14,48,23.30
2017,06,26,14,49,23.30
2017,06,26,14,50,23.20
2017,06,26,14,51,23.00
2017,06,26,14,52,22.90
2017,06,26,14,53,22.80
2017,06,26,14,54,22.80
2017,06,26,14,55,22.70
2017,06,26,14,56,22.70
2017,06,26,14,57,22.70
2017,06,26,14,58,22.70
2017,06,26,14,59,22.70
2017,06,26,15,00,22.80
2017,06,26,15,01,22.90
2017,06,26,15,02,23.00
2017,06,26,15,03,23.20
2017,06,26,15,04,23.30
2017,06,26,15,05,23.30
2017,06,26,15,06,23.30
2017,06,26,15,07,23.30
2017,06,26,15,08,23.30
2017,06,26,15,09,23.30
2017,06,26,15,10,23.20
2017,06,26,15,11,23.20
2017,06,26,15,12,23.30
2017,06,26,15,13,23.30
2017,06,26,15,14,23.30
2017,06,26,15,15,23.40
2017,06,26,15,16,23.50
2017,06,26,15,17,23.60
2017,06,26,15,18,23.70
2017,06,26,15,19,23.80
2017,06,26,15,20,24.00
2017,06,26,15,21,24.00
2017,06,26,15,22,24.00
2017,06,26,15,23,24.00
2017,06,26,15,24,23.90
2017,06,26,15,25,23.90
2017,06,26,15,26,23.90
2017,06,26,15,27,23.90
2017,06,26,15,28,23.90
2017,06,26,15,29,23.80
2017,06,26,15,30,23.80
2017,06,26,15,31,23.80
2017,06,26,15,32,23.70
2017,06,26,15,33,23.60
2017,06,26,15,34,23.50
2017,06,26,15,35,23.40
2017,06,26,15,36,23.50
2017,06,26,15,37,23.60
2017,06,26,15,38,23.70
2017,06,26,15,39,23.70
2017,06,26,15,40,23.70
2017,06,26,15,41,23.70
2017,06,26,15,42,23.70
2017,06,26,15,43,23.70
2017,06,26,15,44,23.60
2017,06,26,15,45,23.60
2017,06,26,15,46,23.60
2017,06,26,15,47,23.50
2017,06,26,15,48,23.50
2017,06,26,15,49,23.50
2017,06,26,15,50,23.60
2017,06,26,15,51,23.60
2017,06,26,15,52,23.60
2017,06,26,15,53,23.60
2017,06,26,15,54,23.50
2017,06,26,15,55,23.50
2017,06,26,15,56,23.40
2017,06,26,15,57,23.50
2017,06,26,15,58,23.50
2017,06,26,15,59,23.50
2017,06,26,16,00,23.60
2017,06,26,16,01,23.70
2017,06,26,16,02,23.70
2017,06,26,16,03,23.60
2017,06,26,16,04,23.50
2017,06,26,16,05,23.50
2017,06,26,16,06,23.40
2017,06,26,16,07,23.30
2017,06,26,16,08,23.30
2017,06,26,16,09,23.40
2017,06,26,16,10,23.50
2017,06,26,16,11,23.60
2017,06,26,16,12,23.60
2017,06,26,16,13,23.60
2017,06,26,16,14,23.60
2017,06,26,16,15,23.60
2017,06,26,16,16,23.50
2017,06,26,16,17,23.40
2017,06,26,16,18,23.40
2017,06,26,16,19,23.40
2017,06,26,16,20,23.40
2017,06,26,16,21,23.50
2017,06,26,16,22,23.50
2017,06,26,16,23,23.60
2017,06,26,16,24,23.50
2017,06,26,16,25,23.50
2017,06,26,16,26,23.40
2017,06,26,16,27,23.30
2017,06,26,16,28,23.00
2017,06,26,16,29,22.90
2017,06,26,16,30,22.90
2017,06,26,16,31,22.90
2017,06,26,16,32,22.80
2017,06,26,16,33,22.80
2017,06,26,16,34,22.80
2017,06,26,16,35,22.70
2017,06,26,16,36,22.70
2017,06,26,16,37,22.70
2017,06,26,16,38,22.70
2017,06,26,16,39,22.80
2017,06,26,16,40,22.80
2017,06,26,16,41,22.90
2017,06,26,16,42,23.00
2017,06,26,16,43,23.00
2017,06,26,16,44,22.90
2017,06,26,16,45,22.80
2017,06,26,16,46,22.80
2017,06,26,16,47,22.70
2017,06,26,16,48,22.70
2017,06,26,16,49,22.60
2017,06,26,16,50,22.60
2017,06,26,16,51,22.60
2017,06,26,16,52,22.60
2017,06,26,16,53,22.60
2017,06,26,16,54,22.60
2017,06,26,16,55,22.70
2017,06,26,16,56,22.70
2017,06,26,16,57,22.60
2017,06,26,16,58,22.60
2017,06,26,16,59,22.50
2017,06,26,17,00,22.50
2017,06,26,17,01,22.40
2017,06,26,17,02,22.30
2017,06,26,17,03,22.30
2017,06,26,17,04,22.30
2017,06,26,17,05,22.30
2017,06,26,17,06,22.20
2017,06,26,17,07,22.10
2017,06,26,17,08,22.10
2017,06,26,17,09,22.10
2017,06,26,17,10,22.10
2017,06,26,17,11,22.10
2017,06,26,17,12,22.20
2017,06,26,17,13,22.30
2017,06,26,17,14,22.30
2017,06,26,17,15,22.40
2017,06,26,17,16,22.40
2017,06,26,17,17,22.40
2017,06,26,17,18,22.30
2017,06,26,17,19,22.30